WP4MXZ San Sebastian PR US current weather conditions

sailwx.info

Wind from 210

Air temperature 20.6° C
Dewpoint 20.6° C

Last reported at 2015-May-28 08:33 UTC.
Time now 2015-May-28 10:04 UTC

Location: N 18°20' W 067°00'.
View on Google Maps.

See reports from other nearby stations

  
Tides and Currents Weather Stations Pressure Air Temp Water Temp Dewpoint Dewpoint Depression Visibility Wind Speed Wind Dir Waves Ship Positions
date/time (UTC)wind fromknots sea level pressurealtimeterstation pressurevisibilityair tempwater tempwave heightnotes
2015-May-28 08:33 210 20.6
2015-May-28 08:03 210 20.6
2015-May-28 07:33 168 20.6
2015-May-28 07:03 168 20.6
2015-May-28 06:33 168 20.6
2015-May-28 06:03 168 20.6
2015-May-28 05:33 168 20.6
2015-May-28 05:03 168 20.6
2015-May-28 04:33 168 21.1
2015-May-28 04:03 168 21.1
2015-May-28 03:33 168 21.7
2015-May-28 03:03 168 22.2
2015-May-28 02:33 168 22.2
2015-May-28 02:03 163 22.2
2015-May-28 01:33 162 22.8
2015-May-28 01:03 162 23.9
2015-May-28 00:33 162 23.9
2015-May-28 00:03 171 0 gusting 3 23.9
2015-May-27 23:33 162 24.4
2015-May-27 23:03 179 24.4
2015-May-27 22:33 153 2 gusting 7 25.0
2015-May-27 22:03 185 0 gusting 6 25.6
2015-May-27 12:33 171 27.2
2015-May-27 12:03 171 25.6
2015-May-27 11:33 171 23.3
2015-May-27 11:03 171 22.2
2015-May-27 10:33 171 20.6
2015-May-27 10:03 171 20.6
2015-May-27 09:33 171 20.6
2015-May-27 09:03 171 20.6
2015-May-27 08:33 171 21.1
2015-May-27 08:03 171 21.1
2015-May-27 07:33 171 21.1
2015-May-27 07:03 171 21.7
2015-May-27 06:33 171 21.7
2015-May-27 06:03 171 22.2
2015-May-27 05:33 171 22.2
2015-May-27 05:03 171 22.8
2015-May-27 04:33 171 23.3
2015-May-27 04:03 171 23.9
2015-May-27 03:33 171 25.0
2015-May-27 03:03 171 25.0
2015-May-27 02:33 171 25.6
2015-May-27 02:03 187 0 gusting 3 25.6
2015-May-27 01:33 151 25.6
2015-May-27 01:03 148 0 gusting 6 26.1
2015-May-27 00:33 161 1 gusting 6 26.1
2015-May-27 00:03 142 26.1
2015-May-26 23:33 073 2 gusting 4 26.1
2015-May-26 23:03 120 26.7
2015-May-26 22:33 137 4 gusting 8 27.2
2015-May-26 22:03 104 4 gusting 13 27.8
2015-May-26 21:33 163 4 gusting 10 28.3
2015-May-26 21:03 045 3 gusting 10 28.9
2015-May-26 20:33 082 3 gusting 13 28.9
2015-May-26 20:03 120 2 gusting 11 29.4
2015-May-26 19:33 073 2 gusting 9 29.4
2015-May-26 19:03 115 6 gusting 13 30.0
2015-May-26 18:33 142 4 gusting 12 30.6
2015-May-26 18:03 122 5 gusting 12 30.6
2015-May-26 17:33 116 6 gusting 12 30.6
2015-May-26 17:03 119 5 gusting 10 30.6
2015-May-26 16:33 125 3 gusting 8 30.0
2015-May-26 16:03 164 4 gusting 7 30.0
2015-May-26 15:33 168 0 gusting 8 29.4
2015-May-26 15:03 150 3 gusting 12 30.0
2015-May-26 14:33 120 0 gusting 6 29.4
2015-May-26 14:03 138 2 gusting 6 28.9
2015-May-26 13:33 127 4 gusting 6 28.3
2015-May-26 13:03 173 1 gusting 5 27.8
2015-May-26 12:33 211 26.1
2015-May-26 12:03 211 25.0
2015-May-26 11:33 222 23.3
2015-May-26 11:03 222 21.7
2015-May-26 10:33 222 21.1
2015-May-26 10:03 222 20.6